Flag for Germany Weather past 2 weeks in Gotha, Thuringia, Germany

Now
58 °F

Low clouds.


Feels Like: 58 °F
Forecast: 53 / 66 °F
Wind: 5 mph from Northeast

Location: Erfurt-Bindersleben

Current Time: Sep 2, 2014 at 7:23:31 PM

Latest Report: Sep 2, 2014 at 7:00 PM


Visibility: 6 mi

Pressure: 30.18 "Hg

Humidity: 95%

Dew point: 56 °F

Location of GothaLocation

Historic Weather in Gotha — Graph

°F

Gotha temperature yesterday

Maximum temperature yesterday: 63 °F (at 4:00 PM)
Minimum temperature yesterday: 51 °F (at 6:00 AM)
Average temperature yesterday: 56 °F

Past Weeks' High & Low Weather Summary

 TemperatureHumidityPressure
High71 °F (Aug 29, 5:00 PM)98% (Aug 27, 2:00 AM)30.17 "Hg (Aug 27, 2:00 AM)
Low42 °F (Aug 21, 6:00 AM)36% (Aug 22, 3:00 PM)29.70 "Hg (Aug 26, 10:00 AM)
Average57 °F76%29.98 "Hg
* Reported Aug 18 6:00 PM — Sep 2 6:00 PM, Gotha, Weather by CustomWeather, © 2014

Note: Actual official high and low records may vary slightly from our data, if they occured in-between our weather recording intervals... More about our weather records

Advertising

Gotha weather history for previous 24 hours

 ConditionsComfort  
Time TempWeatherWind HumidityBarometerVisibility
6:00 PM
Sep 2
59 °FLow clouds.6 mph96%30.17 "Hg9 mi
5:00 PM60 °FOvercast.6 mph92%30.15 "Hg16 mi
4:00 PM60 °FSprinkles. Overcast.5 mph92%30.15 "Hg7 mi
3:00 PM61 °FOvercast.2 mph87%30.14 "Hg19 mi
2:00 PM60 °FLow clouds.5 mph94%30.14 "Hg12 mi
1:00 PM58 °FLow clouds.6 mph94%30.13 "Hg5 mi
12:00 PM58 °FDrizzle. Low clouds.6 mph96%30.12 "Hg2 mi
11:00 AM57 °FDrizzle. Low clouds.5 mph95%30.12 "Hg2 mi
10:00 AM56 °FLight rain. Low clouds.3 mph96%30.12 "Hg3 mi
9:00 AM56 °FRain. Low clouds.5 mph97%30.11 "Hg2 mi
8:00 AM55 °FLight rain. Low clouds.3 mph96%30.11 "Hg3 mi
7:00 AM55 °FLight rain. Low clouds.3 mph95%30.11 "Hg5 mi
6:00 AM55 °FLight rain. Low clouds.3 mph95%30.10 "Hg5 mi
5:00 AM55 °FLight rain. Low clouds.2 mph96%30.11 "Hg5 mi
4:00 AM55 °FLow clouds.3 mph96%30.11 "Hg7 mi
3:00 AM55 °FOvercast.3 mph95%30.11 "Hg19 mi
2:00 AM56 °FOvercast.3 mph92%30.12 "Hg19 mi
1:00 AM55 °FFog.3 mph94%30.12 "Hg16 mi
12:00 AM56 °FPassing clouds.5 mph92%30.12 "Hg19 mi
11:00 PM
Sep 1
56 °FPassing clouds.5 mph91%30.12 "Hg19 mi
10:00 PM57 °FOvercast.5 mph91%30.12 "Hg19 mi
9:00 PM58 °FOvercast.5 mph84%30.12 "Hg19 mi
8:00 PM59 °FOvercast.3 mph80%30.10 "Hg28 mi
7:00 PM59 °FOvercast.6 mph82%30.09 "Hg31 mi
Weather by CustomWeather, © 2014

See weather overviewHow to use our weather pages